UAL547 MMSD-KLAX

Flight info

Callsign UAL547
Flight time 2h 11m
Altitude 38000
Route ANEGO1B ANEGO UL312 TAGMO UT50 ASUTA DCT AMMOR OLAAA2
Aircraft A20N/M-SDE2E3FGHIRWXY/LB1

Departure

Time 2026-04-25 15:25
Airport Los Cabos International Airport (MMSD)

Arrival

Time 2026-04-25 17:37
Airport Los Angeles International Airport (KLAX)
Time Latitude Longitude Altitude Speed Heading
2026-04-25 14:46 23.15639 -109.71770 366 ft 0 kts 85°
2026-04-25 15:15 23.15639 -109.71776 370 ft 4 kts 85°
2026-04-25 15:15 23.15637 -109.71805 366 ft 4 kts 93°
2026-04-25 15:15 23.15643 -109.71831 369 ft 4 kts 147°
2026-04-25 15:15 23.15653 -109.71835 368 ft 1 kts 174°
2026-04-25 15:16 23.15654 -109.71836 368 ft 0 kts 174°
2026-04-25 15:20 23.15650 -109.71835 369 ft 3 kts 173°
2026-04-25 15:20 23.15629 -109.71843 366 ft 6 kts 204°
2026-04-25 15:21 23.15600 -109.71893 366 ft 9 kts 239°
2026-04-25 15:21 23.15534 -109.71907 365 ft 12 kts 173°
2026-04-25 15:21 23.15434 -109.71894 364 ft 17 kts 173°
2026-04-25 15:21 23.15306 -109.71878 363 ft 20 kts 171°
2026-04-25 15:22 23.15154 -109.71860 359 ft 24 kts 174°
2026-04-25 15:22 23.14980 -109.71841 354 ft 27 kts 173°
2026-04-25 15:22 23.14785 -109.71819 353 ft 29 kts 174°
2026-04-25 15:22 23.14573 -109.71796 352 ft 32 kts 174°
2026-04-25 15:23 23.14383 -109.71778 335 ft 25 kts 169°
2026-04-25 15:23 23.14239 -109.71757 332 ft 16 kts 173°
2026-04-25 15:23 23.14117 -109.71742 331 ft 20 kts 173°
2026-04-25 15:23 23.13983 -109.71725 326 ft 19 kts 176°
2026-04-25 15:24 23.13890 -109.71782 327 ft 16 kts 255°
2026-04-25 15:24 23.13879 -109.71884 328 ft 12 kts 269°
2026-04-25 15:24 23.13920 -109.71928 326 ft 9 kts 348°
2026-04-25 15:24 23.13966 -109.71934 327 ft 12 kts 355°
2026-04-25 15:25 23.14403 -109.71986 336 ft 92 kts 354°
2026-04-25 15:25 23.15237 -109.72080 361 ft 146 kts 354°
2026-04-25 15:25 23.16352 -109.72206 654 ft 166 kts 354°
2026-04-25 15:25 23.17492 -109.72337 1382 ft 161 kts 354°
2026-04-25 15:26 23.18600 -109.72461 2094 ft 160 kts 355°
2026-04-25 15:26 23.19762 -109.72590 2554 ft 177 kts 355°
2026-04-25 15:26 23.21066 -109.72734 2932 ft 198 kts 355°
2026-04-25 15:26 23.22498 -109.72900 3417 ft 223 kts 354°
2026-04-25 15:27 23.24118 -109.73089 3930 ft 245 kts 354°
2026-04-25 15:27 23.25709 -109.73273 4429 ft 265 kts 354°
2026-04-25 15:27 23.29524 -109.73704 6116 ft 279 kts 353°
2026-04-25 15:28 23.31461 -109.73923 7007 ft 281 kts 353°
2026-04-25 15:28 23.33420 -109.74146 7824 ft 285 kts 353°
2026-04-25 15:28 23.35339 -109.74686 8615 ft 286 kts 330°
2026-04-25 15:28 23.36846 -109.76022 9438 ft 285 kts 306°
2026-04-25 15:29 23.37859 -109.77874 10245 ft 287 kts 294°
2026-04-25 15:29 23.38670 -109.79932 10613 ft 307 kts 291°
2026-04-25 15:29 23.39484 -109.82174 10851 ft 329 kts 291°
2026-04-25 15:29 23.40370 -109.84544 11407 ft 338 kts 292°
2026-04-25 15:30 23.41291 -109.86905 12176 ft 341 kts 292°
2026-04-25 15:30 23.42241 -109.89282 12908 ft 344 kts 293°
2026-04-25 15:30 23.43209 -109.91674 13655 ft 347 kts 293°
2026-04-25 15:30 23.44180 -109.94060 14320 ft 350 kts 293°
2026-04-25 15:31 23.45173 -109.96498 15014 ft 352 kts 293°
2026-04-25 15:31 23.46170 -109.98947 15635 ft 355 kts 293°
2026-04-25 15:31 23.47179 -110.01425 16281 ft 358 kts 293°
2026-04-25 15:31 23.48191 -110.03909 16913 ft 361 kts 293°
2026-04-25 15:32 23.49214 -110.06420 17530 ft 364 kts 292°
2026-04-25 15:32 23.50245 -110.08950 18152 ft 366 kts 293°
2026-04-25 15:32 23.51284 -110.11500 18711 ft 369 kts 292°
2026-04-25 15:33 23.53539 -110.16520 19807 ft 376 kts 300°
2026-04-25 15:33 23.55074 -110.18844 20330 ft 380 kts 307°
2026-04-25 15:33 23.56905 -110.20973 20858 ft 385 kts 313°
2026-04-25 15:33 23.58822 -110.23017 21378 ft 388 kts 312°
2026-04-25 15:34 23.60757 -110.25104 21909 ft 391 kts 312°
2026-04-25 15:34 23.62695 -110.27200 22403 ft 395 kts 312°
2026-04-25 15:34 23.64631 -110.29297 22916 ft 398 kts 311°
2026-04-25 15:34 23.65966 -110.30743 23272 ft 400 kts 311°
2026-04-25 15:35 23.70588 -110.35749 24365 ft 405 kts 311°
2026-04-25 15:35 23.72597 -110.37926 24831 ft 407 kts 311°
2026-04-25 15:35 23.74614 -110.40113 25271 ft 409 kts 311°
2026-04-25 15:36 23.78654 -110.44496 26125 ft 414 kts 311°
2026-04-25 15:36 23.80703 -110.46722 26543 ft 416 kts 311°
2026-04-25 15:36 23.82762 -110.48959 26947 ft 419 kts 311°
2026-04-25 15:37 23.84835 -110.51212 27336 ft 421 kts 310°
2026-04-25 15:37 23.86918 -110.53477 27722 ft 424 kts 310°
2026-04-25 15:37 23.89016 -110.55759 28095 ft 426 kts 311°
2026-04-25 15:37 23.91242 -110.57940 28478 ft 432 kts 315°
2026-04-25 15:38 23.93537 -110.60058 28836 ft 434 kts 315°
2026-04-25 15:38 23.95851 -110.62202 29196 ft 437 kts 315°
2026-04-25 15:38 23.98175 -110.64360 29543 ft 439 kts 315°
2026-04-25 15:38 24.00509 -110.66529 29887 ft 442 kts 314°
2026-04-25 15:39 24.02856 -110.68711 30212 ft 444 kts 314°
2026-04-25 15:39 24.05216 -110.70905 30564 ft 444 kts 314°
2026-04-25 15:39 24.07567 -110.73092 30954 ft 444 kts 314°
2026-04-25 15:39 24.09922 -110.75283 31372 ft 443 kts 314°
2026-04-25 15:40 24.12262 -110.77461 31862 ft 440 kts 314°
2026-04-25 15:40 24.13015 -110.78162 32026 ft 439 kts 314°
2026-04-25 15:40 24.16859 -110.81743 32893 ft 432 kts 314°
2026-04-25 15:40 24.18978 -110.83719 33341 ft 429 kts 314°
2026-04-25 15:41 24.21242 -110.85832 33830 ft 425 kts 314°
2026-04-25 15:41 24.23115 -110.87580 34184 ft 423 kts 313°
2026-04-25 15:41 24.25345 -110.89664 34549 ft 420 kts 313°
2026-04-25 15:41 24.27563 -110.91739 34869 ft 419 kts 313°
2026-04-25 15:42 24.29751 -110.93786 35169 ft 417 kts 313°
2026-04-25 15:42 24.31956 -110.95849 35478 ft 416 kts 313°
2026-04-25 15:42 24.34156 -110.97908 35762 ft 415 kts 313°
2026-04-25 15:42 24.36354 -110.99966 36062 ft 413 kts 313°
2026-04-25 15:43 24.38533 -111.02007 36342 ft 412 kts 313°
2026-04-25 15:43 24.40718 -111.04055 36609 ft 411 kts 313°
2026-04-25 15:43 24.42864 -111.06068 36851 ft 410 kts 313°
2026-04-25 15:43 24.45034 -111.08103 37115 ft 409 kts 313°
2026-04-25 15:44 24.47189 -111.10126 37360 ft 407 kts 313°
2026-04-25 15:44 24.49345 -111.12150 37605 ft 406 kts 312°
2026-04-25 15:44 24.51499 -111.14173 37814 ft 406 kts 312°
2026-04-25 15:44 24.53643 -111.16189 38001 ft 405 kts 312°
2026-04-25 15:45 24.57913 -111.20205 37995 ft 403 kts 312°
2026-04-25 15:45 24.60740 -111.22867 38001 ft 403 kts 312°
2026-04-25 15:46 24.66423 -111.28222 37997 ft 404 kts 312°
2026-04-25 15:46 24.70691 -111.32246 37996 ft 404 kts 312°
2026-04-25 15:47 24.74957 -111.36273 37992 ft 404 kts 312°
2026-04-25 15:47 24.79186 -111.40269 37996 ft 404 kts 312°
2026-04-25 15:48 24.83450 -111.44303 37993 ft 404 kts 311°
2026-04-25 15:48 24.87715 -111.48341 37993 ft 404 kts 311°
2026-04-25 15:49 24.91982 -111.52384 38002 ft 404 kts 311°
2026-04-25 15:49 24.96211 -111.56396 38003 ft 404 kts 311°
2026-04-25 15:50 25.00471 -111.60441 38003 ft 404 kts 311°
2026-04-25 15:50 25.04741 -111.64498 38004 ft 404 kts 311°
2026-04-25 15:51 25.07567 -111.67186 38003 ft 404 kts 311°
2026-04-25 15:51 25.13264 -111.72609 37997 ft 404 kts 311°
2026-04-25 15:52 25.17524 -111.76669 38009 ft 404 kts 311°
2026-04-25 15:52 25.21757 -111.80707 37998 ft 404 kts 311°
2026-04-25 15:53 25.26018 -111.84775 38010 ft 404 kts 311°
2026-04-25 15:53 25.30589 -111.88504 38000 ft 414 kts 320°
2026-04-25 15:54 25.35773 -111.91437 38006 ft 424 kts 328°
2026-04-25 15:54 25.41194 -111.94009 38000 ft 424 kts 327°
2026-04-25 15:55 25.46576 -111.96582 38001 ft 424 kts 327°
2026-04-25 15:55 25.52020 -111.99180 37999 ft 424 kts 327°
2026-04-25 15:56 25.57427 -112.01759 38001 ft 425 kts 327°
2026-04-25 15:56 25.62857 -112.04352 38002 ft 425 kts 327°
2026-04-25 15:57 25.68290 -112.06948 38003 ft 425 kts 327°
2026-04-25 15:57 25.73734 -112.09553 38004 ft 426 kts 327°
2026-04-25 15:58 25.79152 -112.12149 38007 ft 426 kts 327°
2026-04-25 15:58 25.84587 -112.14755 38002 ft 426 kts 327°
2026-04-25 15:59 25.90037 -112.17372 37998 ft 426 kts 327°
2026-04-25 15:59 25.95477 -112.19986 38005 ft 426 kts 327°
2026-04-25 16:00 25.99119 -112.21738 37998 ft 426 kts 326°
2026-04-25 16:00 26.06336 -112.25213 37999 ft 427 kts 326°
2026-04-25 16:01 26.10902 -112.27414 38000 ft 427 kts 326°
2026-04-25 16:01 26.16349 -112.30042 37998 ft 427 kts 326°
2026-04-25 16:02 26.21772 -112.32660 38006 ft 427 kts 326°
2026-04-25 16:02 26.27222 -112.35295 38006 ft 427 kts 326°
2026-04-25 16:03 26.32675 -112.37934 38007 ft 427 kts 326°
2026-04-25 16:03 26.38144 -112.40584 38002 ft 427 kts 326°
2026-04-25 16:04 26.43604 -112.43231 37997 ft 427 kts 326°
2026-04-25 16:04 26.49023 -112.45862 37998 ft 427 kts 326°
2026-04-25 16:05 26.54470 -112.48509 37998 ft 427 kts 326°
2026-04-25 16:06 26.62647 -112.52487 37998 ft 427 kts 326°
2026-04-25 16:06 26.68096 -112.55142 37995 ft 427 kts 326°
2026-04-25 16:07 26.73532 -112.57793 37996 ft 426 kts 326°
2026-04-25 16:07 26.78964 -112.60445 37990 ft 425 kts 326°
2026-04-25 16:08 26.84398 -112.63101 37991 ft 425 kts 325°
2026-04-25 16:08 26.89800 -112.65745 37996 ft 425 kts 325°
2026-04-25 16:09 26.95213 -112.68395 38000 ft 425 kts 325°
2026-04-25 16:09 27.00637 -112.71054 37999 ft 425 kts 325°
2026-04-25 16:10 27.06046 -112.73710 37995 ft 424 kts 325°
2026-04-25 16:10 27.11462 -112.76371 37999 ft 424 kts 325°
2026-04-25 16:11 27.16877 -112.79034 37999 ft 424 kts 325°
2026-04-25 16:11 27.22284 -112.81697 38003 ft 424 kts 325°
2026-04-25 16:12 27.27694 -112.84364 38000 ft 424 kts 325°
2026-04-25 16:12 27.33065 -112.87014 37999 ft 424 kts 325°
2026-04-25 16:13 27.38483 -112.89690 37998 ft 425 kts 325°
2026-04-25 16:13 27.43889 -112.92363 37998 ft 424 kts 325°
2026-04-25 16:14 27.49315 -112.95050 38001 ft 425 kts 325°
2026-04-25 16:14 27.54691 -112.97713 38005 ft 425 kts 325°
2026-04-25 16:15 27.60103 -113.00399 38002 ft 425 kts 325°
2026-04-25 16:15 27.65523 -113.03090 38003 ft 425 kts 325°
2026-04-25 16:16 27.70915 -113.05770 37998 ft 424 kts 325°
2026-04-25 16:16 27.76323 -113.08462 38007 ft 424 kts 325°
2026-04-25 16:17 27.81716 -113.11148 37996 ft 424 kts 324°
2026-04-25 16:17 27.87114 -113.13842 37998 ft 424 kts 324°
2026-04-25 16:18 27.92473 -113.16518 38001 ft 424 kts 324°
2026-04-25 16:18 27.97903 -113.19232 38003 ft 424 kts 324°
2026-04-25 16:19 28.03254 -113.21909 37999 ft 424 kts 324°
2026-04-25 16:19 28.08651 -113.24613 37999 ft 424 kts 324°
2026-04-25 16:20 28.16729 -113.28666 37994 ft 423 kts 324°
2026-04-25 16:21 28.24820 -113.32731 37995 ft 423 kts 324°
2026-04-25 16:21 28.30210 -113.35444 37995 ft 423 kts 324°
2026-04-25 16:22 28.35590 -113.38154 37984 ft 423 kts 324°
2026-04-25 16:22 28.40944 -113.40853 37985 ft 422 kts 324°
2026-04-25 16:23 28.46309 -113.43562 37976 ft 422 kts 324°
2026-04-25 16:23 28.51669 -113.46271 37970 ft 421 kts 324°
2026-04-25 16:24 28.57038 -113.48988 37971 ft 422 kts 324°
2026-04-25 16:24 28.62413 -113.51712 37973 ft 422 kts 324°
2026-04-25 16:25 28.67738 -113.54411 37971 ft 422 kts 324°
2026-04-25 16:25 28.73114 -113.57142 37969 ft 422 kts 323°
2026-04-25 16:26 28.78478 -113.59868 37985 ft 422 kts 323°
2026-04-25 16:26 28.83857 -113.62606 37987 ft 423 kts 324°
2026-04-25 16:27 28.89232 -113.65344 37970 ft 424 kts 324°
2026-04-25 16:27 28.94614 -113.68088 37974 ft 423 kts 324°
2026-04-25 16:28 28.99981 -113.70826 37984 ft 421 kts 323°
2026-04-25 16:28 29.05302 -113.73547 37974 ft 421 kts 323°
2026-04-25 16:29 29.10658 -113.76288 37974 ft 421 kts 323°
2026-04-25 16:29 29.16009 -113.79031 37973 ft 421 kts 323°
2026-04-25 16:30 29.21365 -113.81778 37968 ft 421 kts 323°
2026-04-25 16:30 29.26710 -113.84523 37968 ft 422 kts 323°
2026-04-25 16:31 29.32085 -113.87286 37968 ft 422 kts 323°
2026-04-25 16:31 29.37396 -113.90017 37952 ft 419 kts 323°
2026-04-25 16:32 29.42732 -113.92769 37948 ft 421 kts 323°
2026-04-25 16:32 29.48072 -113.95523 37941 ft 420 kts 323°
2026-04-25 16:33 29.53406 -113.98278 37934 ft 420 kts 323°
2026-04-25 16:33 29.58717 -114.01026 37930 ft 421 kts 323°
2026-04-25 16:34 29.64057 -114.03790 37934 ft 421 kts 323°
2026-04-25 16:34 29.69392 -114.06555 37927 ft 420 kts 323°
2026-04-25 16:35 29.74737 -114.09328 37926 ft 420 kts 323°
2026-04-25 16:35 29.80038 -114.12083 37924 ft 420 kts 323°
2026-04-25 16:36 29.85365 -114.14853 37916 ft 420 kts 323°
2026-04-25 16:36 29.90665 -114.17613 37914 ft 419 kts 323°
2026-04-25 16:37 29.95983 -114.20385 37906 ft 419 kts 323°
2026-04-25 16:37 30.01297 -114.23159 37907 ft 418 kts 323°
2026-04-25 16:38 30.06605 -114.25933 37900 ft 418 kts 323°
2026-04-25 16:38 30.11868 -114.28687 37912 ft 417 kts 323°
2026-04-25 16:39 30.17157 -114.31457 37896 ft 417 kts 323°
2026-04-25 16:39 30.22437 -114.34227 37893 ft 417 kts 323°
2026-04-25 16:40 30.27729 -114.37006 37890 ft 416 kts 323°
2026-04-25 16:40 30.32984 -114.39768 37884 ft 416 kts 323°
2026-04-25 16:41 30.38259 -114.42544 37886 ft 416 kts 323°
2026-04-25 16:41 30.46178 -114.46718 37885 ft 416 kts 323°
2026-04-25 16:42 30.51454 -114.49504 37886 ft 416 kts 323°
2026-04-25 16:42 30.56693 -114.52272 37883 ft 416 kts 323°
2026-04-25 16:43 30.61977 -114.55068 37887 ft 417 kts 323°
2026-04-25 16:43 30.67252 -114.57863 37886 ft 417 kts 323°
2026-04-25 16:44 30.72535 -114.60665 37887 ft 417 kts 323°
2026-04-25 16:44 30.77810 -114.63467 37888 ft 417 kts 323°
2026-04-25 16:45 30.83085 -114.66271 37878 ft 417 kts 323°
2026-04-25 16:45 30.88331 -114.69064 37886 ft 416 kts 323°
2026-04-25 16:46 30.93597 -114.71870 37885 ft 416 kts 323°
2026-04-25 16:46 30.97124 -114.73752 37890 ft 416 kts 323°
2026-04-25 16:47 31.04139 -114.77500 37891 ft 416 kts 323°
2026-04-25 16:47 31.09410 -114.80320 37893 ft 416 kts 323°
2026-04-25 16:48 31.13779 -114.82659 37892 ft 416 kts 323°
2026-04-25 16:48 31.19046 -114.85484 37892 ft 416 kts 323°
2026-04-25 16:49 31.24301 -114.88305 37898 ft 416 kts 323°
2026-04-25 16:49 31.29559 -114.91131 37899 ft 416 kts 323°
2026-04-25 16:50 31.34794 -114.93948 37896 ft 416 kts 323°
2026-04-25 16:50 31.40049 -114.96780 37897 ft 416 kts 323°
2026-04-25 16:51 31.45307 -114.99617 37897 ft 416 kts 323°
2026-04-25 16:51 31.49677 -115.01977 37893 ft 416 kts 323°
2026-04-25 16:52 31.55830 -115.05304 37893 ft 416 kts 323°
2026-04-25 16:52 31.61093 -115.08154 37896 ft 416 kts 324°
2026-04-25 16:53 31.68943 -115.12413 37902 ft 417 kts 324°
2026-04-25 16:54 31.74208 -115.15273 37905 ft 417 kts 324°
2026-04-25 16:54 31.79477 -115.18138 37911 ft 417 kts 324°
2026-04-25 16:55 31.84756 -115.21013 37916 ft 418 kts 324°
2026-04-25 16:55 31.90040 -115.23893 37914 ft 418 kts 324°
2026-04-25 16:56 31.95277 -115.26752 37909 ft 417 kts 324°
2026-04-25 16:56 32.00532 -115.29624 37911 ft 417 kts 324°
2026-04-25 16:57 32.05800 -115.32508 37908 ft 417 kts 324°
2026-04-25 16:57 32.11064 -115.35391 37913 ft 416 kts 324°
2026-04-25 16:58 32.16333 -115.38283 37910 ft 416 kts 324°
2026-04-25 16:58 32.21586 -115.41169 37904 ft 417 kts 324°
2026-04-25 16:59 32.26804 -115.44041 37898 ft 416 kts 324°
2026-04-25 16:59 32.32050 -115.46929 37907 ft 415 kts 324°
2026-04-25 17:00 32.37287 -115.49816 37905 ft 415 kts 324°
2026-04-25 17:00 32.42534 -115.52712 37908 ft 416 kts 324°
2026-04-25 17:01 32.47775 -115.55608 37909 ft 416 kts 324°
2026-04-25 17:01 32.52985 -115.58490 37917 ft 415 kts 324°
2026-04-25 17:02 32.58229 -115.61395 37926 ft 415 kts 324°
2026-04-25 17:02 32.63156 -115.64699 37924 ft 399 kts 313°
2026-04-25 17:03 32.67089 -115.69155 37923 ft 383 kts 301°
2026-04-25 17:03 32.69990 -115.74305 37922 ft 376 kts 295°
2026-04-25 17:04 32.72772 -115.79566 37924 ft 376 kts 295°
2026-04-25 17:04 32.75564 -115.84848 37921 ft 377 kts 295°
2026-04-25 17:05 32.78345 -115.90133 37935 ft 377 kts 295°
2026-04-25 17:05 32.82470 -115.98091 37934 ft 376 kts 294°
2026-04-25 17:06 32.85119 -116.03421 37934 ft 376 kts 293°
2026-04-25 17:06 32.87788 -116.08773 37943 ft 376 kts 294°
2026-04-25 17:07 32.90316 -116.13835 37827 ft 378 kts 294°
2026-04-25 17:07 32.91666 -116.16536 37557 ft 378 kts 294°
2026-04-25 17:07 32.92993 -116.19193 37296 ft 379 kts 294°
2026-04-25 17:08 32.94343 -116.21900 36857 ft 381 kts 294°
2026-04-25 17:08 32.95703 -116.24635 36032 ft 387 kts 294°
2026-04-25 17:08 32.97077 -116.27396 35346 ft 388 kts 294°
2026-04-25 17:08 32.98459 -116.30172 34593 ft 390 kts 294°
2026-04-25 17:09 32.99847 -116.32962 33779 ft 393 kts 294°
2026-04-25 17:09 33.01237 -116.35757 33058 ft 392 kts 294°
2026-04-25 17:09 33.02628 -116.38556 32290 ft 392 kts 294°
2026-04-25 17:09 33.04019 -116.41359 31467 ft 394 kts 294°
2026-04-25 17:10 33.05284 -116.44260 30679 ft 392 kts 289°
2026-04-25 17:10 33.06392 -116.47246 29842 ft 394 kts 289°
2026-04-25 17:10 33.07493 -116.50186 29242 ft 392 kts 289°
2026-04-25 17:10 33.08604 -116.53147 28878 ft 393 kts 289°
2026-04-25 17:11 33.09725 -116.56136 28317 ft 394 kts 290°
2026-04-25 17:11 33.10840 -116.59115 27762 ft 389 kts 290°
2026-04-25 17:11 33.11936 -116.62046 27194 ft 385 kts 289°
2026-04-25 17:11 33.12924 -116.64993 26631 ft 378 kts 284°
2026-04-25 17:12 33.13627 -116.67983 26074 ft 371 kts 279°
2026-04-25 17:12 33.14088 -116.70990 25542 ft 366 kts 277°
2026-04-25 17:12 33.14520 -116.73982 24975 ft 363 kts 277°
2026-04-25 17:12 33.14954 -116.76929 24466 ft 360 kts 277°
2026-04-25 17:13 33.15382 -116.79822 23912 ft 358 kts 277°
2026-04-25 17:13 33.15527 -116.80808 23758 ft 356 kts 277°
2026-04-25 17:13 33.16233 -116.85618 22841 ft 350 kts 277°
2026-04-25 17:13 33.16649 -116.88464 22316 ft 345 kts 277°
2026-04-25 17:14 33.17057 -116.91267 21802 ft 341 kts 277°
2026-04-25 17:14 33.17461 -116.94042 21288 ft 338 kts 277°
2026-04-25 17:14 33.17862 -116.96803 20768 ft 335 kts 277°
2026-04-25 17:14 33.18256 -116.99522 20260 ft 332 kts 277°
2026-04-25 17:15 33.18649 -117.02237 19748 ft 330 kts 277°
2026-04-25 17:15 33.19038 -117.04931 19235 ft 328 kts 277°
2026-04-25 17:15 33.19423 -117.07605 18723 ft 326 kts 277°
2026-04-25 17:15 33.19803 -117.10246 18183 ft 326 kts 277°
2026-04-25 17:16 33.20186 -117.12906 17682 ft 324 kts 278°
2026-04-25 17:16 33.20565 -117.15542 17179 ft 321 kts 278°
2026-04-25 17:16 33.20942 -117.18167 16675 ft 319 kts 278°
2026-04-25 17:16 33.21316 -117.20772 16175 ft 317 kts 277°
2026-04-25 17:17 33.21687 -117.23363 15674 ft 315 kts 277°
2026-04-25 17:17 33.22053 -117.25933 15181 ft 314 kts 277°
2026-04-25 17:17 33.22419 -117.28499 14677 ft 313 kts 277°
2026-04-25 17:17 33.22783 -117.31060 14161 ft 313 kts 277°
2026-04-25 17:18 33.23152 -117.33612 13788 ft 309 kts 278°
2026-04-25 17:18 33.23556 -117.36217 13690 ft 331 kts 278°
2026-04-25 17:18 33.23985 -117.38939 13512 ft 333 kts 278°
2026-04-25 17:18 33.24415 -117.41646 13327 ft 330 kts 278°
2026-04-25 17:19 33.24839 -117.44343 13139 ft 330 kts 278°
2026-04-25 17:19 33.25261 -117.47041 12953 ft 330 kts 278°
2026-04-25 17:19 33.25675 -117.49704 12771 ft 330 kts 278°
2026-04-25 17:19 33.26244 -117.52361 12586 ft 331 kts 287°
2026-04-25 17:20 33.27158 -117.54891 12395 ft 333 kts 295°
2026-04-25 17:20 33.28369 -117.57245 12211 ft 334 kts 300°
2026-04-25 17:20 33.29637 -117.59566 12016 ft 333 kts 300°
2026-04-25 17:20 33.30896 -117.61897 11828 ft 332 kts 300°
2026-04-25 17:21 33.32145 -117.64220 11639 ft 332 kts 300°
2026-04-25 17:21 33.33371 -117.66503 11456 ft 331 kts 300°
2026-04-25 17:21 33.34614 -117.68817 11265 ft 330 kts 300°
2026-04-25 17:21 33.35855 -117.71130 11090 ft 330 kts 300°
2026-04-25 17:22 33.37096 -117.73441 10887 ft 329 kts 300°
2026-04-25 17:22 33.37509 -117.74212 10836 ft 329 kts 300°
2026-04-25 17:22 33.39557 -117.78028 10586 ft 322 kts 300°
2026-04-25 17:22 33.40734 -117.80220 10438 ft 304 kts 300°
2026-04-25 17:23 33.41843 -117.82284 10265 ft 286 kts 300°
2026-04-25 17:23 33.42892 -117.84242 9914 ft 280 kts 300°
2026-04-25 17:23 33.43938 -117.86201 9560 ft 277 kts 300°
2026-04-25 17:23 33.44862 -117.87934 9455 ft 277 kts 300°
2026-04-25 17:24 33.45907 -117.89895 9370 ft 279 kts 300°
2026-04-25 17:24 33.46972 -117.91835 9286 ft 279 kts 306°
2026-04-25 17:24 33.48400 -117.93409 9214 ft 283 kts 324°
2026-04-25 17:24 33.50211 -117.94389 9065 ft 287 kts 338°
2026-04-25 17:25 33.52091 -117.95182 8897 ft 286 kts 337°
2026-04-25 17:25 33.53963 -117.95983 8736 ft 284 kts 337°
2026-04-25 17:25 33.55818 -117.96785 8575 ft 283 kts 337°
2026-04-25 17:25 33.57650 -117.97582 8418 ft 283 kts 337°
2026-04-25 17:26 33.59498 -117.98387 8256 ft 282 kts 337°
2026-04-25 17:26 33.61277 -117.99162 8100 ft 281 kts 337°
2026-04-25 17:26 33.63128 -117.99924 7819 ft 282 kts 340°
2026-04-25 17:26 33.65004 -118.00604 7477 ft 279 kts 341°
2026-04-25 17:27 33.66855 -118.01277 7155 ft 276 kts 341°
2026-04-25 17:27 33.68667 -118.01939 6997 ft 276 kts 341°
2026-04-25 17:27 33.70500 -118.02608 6970 ft 269 kts 341°
2026-04-25 17:27 33.71074 -118.02817 6967 ft 264 kts 341°
2026-04-25 17:28 33.73846 -118.03827 6968 ft 237 kts 340°
2026-04-25 17:28 33.75268 -118.04346 6975 ft 232 kts 340°
2026-04-25 17:28 33.76808 -118.04913 6968 ft 233 kts 340°
2026-04-25 17:28 33.78360 -118.05487 6812 ft 233 kts 338°
2026-04-25 17:29 33.79869 -118.06199 6517 ft 233 kts 335°
2026-04-25 17:29 33.81375 -118.06930 6204 ft 234 kts 335°
2026-04-25 17:29 33.82396 -118.07425 6005 ft 235 kts 336°
2026-04-25 17:29 33.84232 -118.08307 5622 ft 236 kts 336°
2026-04-25 17:30 33.85770 -118.09047 5346 ft 241 kts 336°
2026-04-25 17:30 33.87339 -118.09804 5047 ft 244 kts 337°
2026-04-25 17:30 33.88928 -118.10523 4718 ft 245 kts 344°
2026-04-25 17:30 33.90607 -118.10826 4407 ft 243 kts 358°
2026-04-25 17:31 33.92279 -118.10946 4091 ft 239 kts 348°
2026-04-25 17:31 33.93772 -118.11746 3783 ft 234 kts 322°
2026-04-25 17:31 33.95025 -118.12975 3518 ft 229 kts 314°
2026-04-25 17:31 33.95808 -118.14550 3406 ft 214 kts 282°
2026-04-25 17:32 33.95951 -118.16266 3306 ft 201 kts 265°
2026-04-25 17:32 33.95821 -118.17940 3277 ft 200 kts 259°
2026-04-25 17:32 33.95636 -118.19589 3138 ft 202 kts 260°
2026-04-25 17:32 33.95467 -118.21279 2895 ft 201 kts 259°
2026-04-25 17:33 33.95299 -118.22917 2653 ft 198 kts 260°
2026-04-25 17:33 33.95137 -118.24522 2393 ft 184 kts 260°
2026-04-25 17:33 33.94989 -118.25977 2154 ft 166 kts 260°
2026-04-25 17:33 33.94854 -118.27302 1940 ft 151 kts 260°
2026-04-25 17:34 33.94735 -118.28480 1758 ft 135 kts 260°
2026-04-25 17:34 33.94623 -118.29572 1590 ft 135 kts 260°
2026-04-25 17:34 33.94509 -118.30688 1394 ft 131 kts 260°
2026-04-25 17:34 33.94398 -118.31778 1218 ft 132 kts 260°
2026-04-25 17:35 33.94288 -118.32864 1038 ft 128 kts 260°
2026-04-25 17:35 33.94215 -118.33572 922 ft 130 kts 259°
2026-04-25 17:35 33.94107 -118.34633 743 ft 127 kts 260°
2026-04-25 17:35 33.93963 -118.36048 512 ft 128 kts 260°
2026-04-25 17:36 33.93890 -118.36763 398 ft 126 kts 261°
2026-04-25 17:36 33.93746 -118.38154 197 ft 126 kts 259°
2026-04-25 17:36 33.93679 -118.38758 136 ft 125 kts 259°
2026-04-25 17:36 33.93594 -118.39612 121 ft 76 kts 266°
2026-04-25 17:37 33.93549 -118.40090 121 ft 50 kts 262°
2026-04-25 17:37 33.93536 -118.40421 123 ft 20 kts 277°
2026-04-25 17:37 33.93550 -118.40486 125 ft 23 kts 293°
2026-04-25 17:37 33.93596 -118.40683 124 ft 26 kts 270°
2026-04-25 17:38 33.93599 -118.40826 121 ft 15 kts 286°
2026-04-25 17:38 33.93645 -118.40890 121 ft 16 kts 335°
2026-04-25 17:38 33.93761 -118.40916 123 ft 11 kts 352°
2026-04-25 17:38 33.93847 -118.40923 123 ft 12 kts 10°
2026-04-25 17:39 33.93868 -118.40891 123 ft 1 kts 70°
2026-04-25 17:39 33.93872 -118.40871 124 ft 2 kts 79°
2026-04-25 17:39 33.93875 -118.40840 125 ft 6 kts 82°
2026-04-25 17:39 33.93880 -118.40786 125 ft 6 kts 83°
2026-04-25 17:40 33.93884 -118.40746 121 ft 1 kts 82°
2026-04-25 17:40 33.93885 -118.40737 124 ft 0 kts 82°
2026-04-25 17:40 33.93886 -118.40735 124 ft 2 kts 82°
2026-04-25 17:40 33.93889 -118.40698 125 ft 7 kts 84°
2026-04-25 17:41 33.93897 -118.40621 121 ft 11 kts 80°
2026-04-25 17:41 33.93909 -118.40522 125 ft 12 kts 83°
2026-04-25 17:41 33.93921 -118.40408 125 ft 15 kts 85°
2026-04-25 17:41 33.93933 -118.40272 124 ft 15 kts 81°
2026-04-25 17:42 33.93945 -118.40156 124 ft 12 kts 82°
2026-04-25 17:42 33.93970 -118.40069 124 ft 12 kts 38°
2026-04-25 17:42 33.93999 -118.40059 122 ft 2 kts 15°
2026-04-25 17:42 33.94023 -118.40046 122 ft 6 kts 21°
2026-04-25 17:43 33.94034 -118.40044 124 ft 0 kts
2026-04-25 17:43 33.94051 -118.40061 123 ft 9 kts 322°
2026-04-25 17:44 33.94096 -118.40084 123 ft 6 kts 347°
2026-04-25 17:44 33.94114 -118.40057 121 ft 5 kts 76°
2026-04-25 17:44 33.94115 -118.40046 121 ft 3 kts 83°
2026-04-25 17:44 33.94115 -118.40027 124 ft 0 kts 91°